Home   Weather   Kalgoorlie   Past weeks

Flag for Australia Past Weather in Kalgoorlie, Western Australia, Australia — Yesterday and Last 2 Weeks

Now
81 °F

Sunny.


Feels Like: 78 °F
Forecast: 49 / 66 °F
Wind: 18 mph from West

Location: Kalgoorlie Boulder Amo

Current Time: Sep 30, 2016 at 4:28:06 PM

Latest Report: Sep 30, 2016 at 4:00 PM


Visibility: N/A

Pressure: 29.59 "Hg

Humidity: 5%

Dew Point: 3 °F

Location of KalgoorlieLocation

Past Weather in Kalgoorlie — Graph

°F

Kalgoorlie Temperature Yesterday

Maximum temperature yesterday: 66 °F (at 3:00 PM)
Minimum temperature yesterday: 36 °F (at 4:30 AM)
Average temperature yesterday: 51 °F

High & Low Weather Summary for the Past Weeks

 TemperatureHumidityPressure
High86 °F (Sep 22, 2:00 PM)93% (Sep 17, 4:00 AM)30.30 "Hg (Sep 17, 4:00 AM)
Low34 °F (Sep 17, 4:30 AM)5% (Sep 30, 2:00 PM)29.59 "Hg (Sep 30, 2:00 PM)
Average55 °F45%29.98 "Hg
* Reported Sep 15 3:00 PM — Sep 30 3:00 PM, Kalgoorlie, Weather by CustomWeather, © 2016

Note: Actual official high and low records may vary slightly from our data, if they occured in-between our weather recording intervals... More about our weather records

Advertising

Kalgoorlie Weather History for the Previous 24 Hours

Scroll right to see more
 ConditionsComfort  
Time TempWeatherWind HumidityBarometerVisibility
3:00 PM
Fri, Sep 30
81 °FSunny.20 mph5%29.59 "HgN/A
2:30 PM82 °FSunny.17 mph5%29.59 "HgN/A
2:00 PM82 °FSunny.15 mph5%29.59 "HgN/A
1:00 PM81 °FSunny.13 mph6%29.62 "HgN/A
12:30 PM79 °FSunny.17 mph6%29.65 "HgN/A
12:03 PM77 °FSunny.17 mph7%29.65 "HgN/A
11:00 AM75 °FSunny.17 mph9%29.71 "HgN/A
10:00 AM72 °FSunny.15 mph11%29.74 "HgN/A
9:30 AM72 °FSunny.15 mph13%29.77 "HgN/A
9:00 AM68 °FSunny.14 mph17%29.77 "HgN/A
8:30 AM63 °FSunny.13 mph22%29.80 "HgN/A
8:00 AM59 °FSunny.15 mph25%29.80 "HgN/A
7:30 AM57 °FSunny.17 mph27%29.83 "HgN/A
7:00 AM55 °FSunny.12 mph31%29.83 "HgN/A
6:30 AM52 °FSunny.12 mph35%29.83 "HgN/A
6:00 AM48 °FSunny.10 mph40%29.80 "HgN/A
5:30 AM48 °FClear.10 mph40%29.83 "HgN/A
5:00 AM50 °FClear.10 mph37%29.80 "HgN/A
4:30 AM50 °FClear.9 mph37%29.80 "HgN/A
4:00 AM50 °FClear.9 mph37%29.83 "HgN/A
3:30 AM50 °FClear.7 mph37%29.83 "HgN/A
3:00 AM50 °FClear.9 mph37%29.83 "HgN/A
2:00 AM48 °FClear.6 mph40%29.86 "HgN/A
1:30 AM46 °FClear.5 mph43%29.86 "HgN/A
1:00 AM48 °FClear.5 mph40%29.89 "HgN/A
12:30 AM48 °FClear.6 mph43%29.89 "HgN/A
12:00 AM50 °FClear.5 mph40%29.92 "HgN/A
11:30 PM
Thu, Sep 29
48 °FClear.5 mph43%29.92 "HgN/A
11:00 PM50 °FClear.3 mph43%29.92 "HgN/A
10:00 PM54 °FClear.6 mph35%29.95 "HgN/A
9:30 PM54 °FClear.5 mph38%29.95 "HgN/A
9:00 PM54 °FClear.3 mph35%29.95 "HgN/A
8:30 PM55 °FClear.5 mph33%29.95 "HgN/A
8:00 PM55 °FClear.3 mph33%29.98 "HgN/A
7:30 PM57 °FClear.6 mph29%29.98 "HgN/A
7:00 PM59 °FClear.6 mph27%29.98 "HgN/A
6:00 PM63 °FClear.9 mph24%29.98 "HgN/A
5:00 PM66 °FSunny.6 mph21%29.98 "HgN/A
4:30 PM66 °FSunny.6 mph21%29.98 "HgN/A
4:00 PM64 °FSunny.6 mph22%30.01 "HgN/A
Weather by CustomWeather, © 2016

See weather overviewHow to use our weather pages